TimePDT,TemperatureF,Dew PointF,Humidity,Sea Level PressureIn,VisibilityMPH,Wind Direction,Wind SpeedMPH,Gust SpeedMPH,PrecipitationIn,Events,Conditions,WindDirDegrees,DateUTC
12:52 AM,46.0,32.0,58,30.07,10.0,Calm,Calm,-,N/A,,Clear,0,2013-05-15 07:52:00
1:52 AM,48.0,33.1,56,30.06,10.0,Calm,Calm,-,N/A,,Clear,0,2013-05-15 08:52:00
2:52 AM,43.0,30.9,62,30.06,10.0,NNE,3.5,-,N/A,,Clear,20,2013-05-15 09:52:00
3:52 AM,41.0,33.1,73,30.06,10.0,NE,3.5,-,N/A,,Clear,40,2013-05-15 10:52:00
4:52 AM,41.0,32.0,70,30.06,10.0,NNE,4.6,-,N/A,,Clear,30,2013-05-15 11:52:00
5:52 AM,41.0,30.0,65,30.06,10.0,North,4.6,-,N/A,,Clear,10,2013-05-15 12:52:00
6:52 AM,43.0,30.9,62,30.06,10.0,North,3.5,-,N/A,,Clear,10,2013-05-15 13:52:00
7:52 AM,50.0,30.9,48,30.06,10.0,Calm,Calm,-,N/A,,Clear,0,2013-05-15 14:52:00
8:52 AM,57.0,34.0,42,30.06,10.0,North,5.8,-,N/A,,Clear,10,2013-05-15 15:52:00
9:52 AM,61.0,32.0,34,30.05,10.0,NNE,4.6,-,N/A,,Clear,20,2013-05-15 16:52:00
10:52 AM,64.0,33.1,31,30.04,10.0,Variable,4.6,-,N/A,,Clear,0,2013-05-15 17:52:00
11:52 AM,64.9,30.9,28,30.01,10.0,Variable,3.5,-,N/A,,Clear,0,2013-05-15 18:52:00
12:52 PM,66.0,30.9,27,30.00,10.0,SSE,3.5,-,N/A,,Clear,150,2013-05-15 19:52:00
1:52 PM,69.1,34.0,27,29.98,10.0,South,9.2,-,N/A,,Clear,180,2013-05-15 20:52:00
2:52 PM,66.9,34.0,30,29.99,10.0,SSW,8.1,-,N/A,,Overcast,210,2013-05-15 21:52:00
3:52 PM,69.1,33.1,26,29.97,10.0,South,9.2,-,N/A,,Mostly Cloudy,180,2013-05-15 22:52:00
4:52 PM,66.0,33.1,29,29.96,10.0,South,11.5,-,N/A,,Overcast,190,2013-05-15 23:52:00
5:52 PM,64.9,37.0,36,29.96,10.0,SW,6.9,-,N/A,,Overcast,220,2013-05-16 00:52:00
6:52 PM,64.0,39.0,40,29.94,10.0,WSW,8.1,-,N/A,,Overcast,240,2013-05-16 01:52:00
7:52 PM,63.0,37.9,40,29.93,10.0,WSW,5.8,-,N/A,,Overcast,240,2013-05-16 02:52:00
8:52 PM,63.0,37.9,40,29.93,10.0,South,3.5,-,N/A,,Overcast,170,2013-05-16 03:52:00
9:52 PM,61.0,39.0,44,29.93,10.0,South,3.5,-,N/A,,Overcast,170,2013-05-16 04:52:00
10:52 PM,62.1,39.0,43,29.92,10.0,Calm,Calm,-,N/A,,Overcast,0,2013-05-16 05:52:00
11:52 PM,62.1,41.0,46,29.92,10.0,Calm,Calm,-,N/A,,Overcast,0,2013-05-16 06:52:00